Location: Alpha Ridge Park
(39.3209°N, 76.9128°W)
Time: 23:30:17
(UTC-04:00)

S-56A Canister/Altair - Pass Details

Date: 21 May 2019
Orbit: 633 x 2499 km, 38.9° (Epoch: 18 June)

Event Time Altitude Azimuth Distance (km) Brightness Sun altitude
Rises 11:30:06 0° 276° (W) 5,710 11.7 62.2°
Reaches altitude 10° 11:36:50 10° 253° (WSW) 4,983 11.6 63.2°
Maximum altitude 11:42:21 13° 230° (SW) 4,844 11.7 64.0°
Drops below altitude 10° 11:48:04 10° 207° (SSW) 5,154 12.0 64.8°
Sets 11:55:29 0° 184° (S) 6,071 12.3 65.9°
